User: anonymous   Login
Location: Newark
(45.8667°N, 9.7333°E)
Time: 02:15:28
(UTC+00:00)
Language:

AO-73 - Orbit

View from above orbital plane
View from above orbital plane
View from above satellite
View from above satellite

Ground track
Ground track

The orbit data is extracted from the following two-line orbital elements,

1 39444U 13066AE  20057.96575243  .00000195  00000-0  30412-4 0  9994
2 39444  97.5590  64.3679 0056448 276.4151  83.0637 14.82069544337440
Epoch (UTC): 26 February 2020 23:10:41
Eccentricity: 0.0056448
inclination: 97.5590°
perigee height: 583 km
apogee height: 662 km
right ascension of ascending node: 64.3679°
argument of perigee: 276.4151°
revolutions per day: 14.82069544
mean anomaly at epoch: 83.0637°
orbit number at epoch: 33744

The dashed part of the orbit path shows where the satellite is in the earth's shadow,  

DLR